TimeCST,TemperatureF,Dew PointF,Humidity,Sea Level PressureIn,VisibilityMPH,Wind Direction,Wind SpeedMPH,Gust SpeedMPH,PrecipitationIn,Events,Conditions,WindDirDegrees,DateUTC
12:53 AM,30.9,28.0,89,30.17,10.0,Calm,Calm,-,N/A,,Clear,0,2013-02-12 06:53:00
1:53 AM,30.9,28.9,92,30.17,10.0,Calm,Calm,-,N/A,,Clear,0,2013-02-12 07:53:00
2:53 AM,28.9,28.0,96,30.16,10.0,Calm,Calm,-,N/A,,Clear,0,2013-02-12 08:53:00
3:53 AM,30.0,27.0,88,30.16,10.0,Calm,Calm,-,N/A,,Clear,0,2013-02-12 09:53:00
4:53 AM,28.9,27.0,92,30.17,10.0,Calm,Calm,-,N/A,,Clear,0,2013-02-12 10:53:00
5:53 AM,28.0,27.0,96,30.15,10.0,Calm,Calm,-,N/A,,Clear,0,2013-02-12 11:53:00
6:21 AM,26.6,24.8,93,30.14,6.0,ENE,3.5,-,N/A,,Scattered Clouds,60,2013-02-12 12:21:00
6:26 AM,26.6,24.8,93,30.14,1.5,ENE,3.5,-,N/A,,Mostly Cloudy,70,2013-02-12 12:26:00
6:28 AM,26.6,24.8,93,30.14,0.8,ENE,3.5,-,N/A,,Mist,70,2013-02-12 12:28:00
6:45 AM,26.6,26.6,100,30.13,1.2,East,3.5,-,N/A,,Scattered Clouds,80,2013-02-12 12:45:00
6:50 AM,26.6,26.6,100,30.13,3.0,NE,3.5,-,N/A,,Partly Cloudy,50,2013-02-12 12:50:00
6:53 AM,28.0,27.0,96,30.14,5.0,NE,3.5,-,N/A,,Partly Cloudy,50,2013-02-12 12:53:00
7:53 AM,32.0,30.0,92,30.15,10.0,Calm,Calm,-,N/A,,Clear,0,2013-02-12 13:53:00
8:53 AM,36.0,33.1,89,30.18,10.0,Calm,Calm,-,N/A,,Clear,0,2013-02-12 14:53:00
9:53 AM,45.0,30.9,58,30.12,10.0,ENE,5.8,-,N/A,,Clear,60,2013-02-12 15:53:00
10:53 AM,46.9,32.0,56,30.12,10.0,NNE,6.9,-,N/A,,Clear,30,2013-02-12 16:53:00
11:53 AM,48.9,30.0,48,30.13,10.0,Calm,Calm,-,N/A,,Clear,0,2013-02-12 17:53:00
12:53 PM,48.0,30.0,50,30.09,10.0,East,3.5,-,N/A,,Clear,100,2013-02-12 18:53:00
1:53 PM,48.9,30.0,48,30.04,10.0,ESE,3.5,-,N/A,,Overcast,110,2013-02-12 19:53:00
2:53 PM,48.9,30.0,48,30.01,10.0,NNE,6.9,-,N/A,,Clear,30,2013-02-12 20:53:00
3:53 PM,48.9,30.9,50,30.01,10.0,ENE,6.9,-,N/A,,Partly Cloudy,60,2013-02-12 21:53:00
4:53 PM,46.9,33.1,59,29.99,10.0,North,5.8,-,N/A,,Mostly Cloudy,10,2013-02-12 22:53:00
5:53 PM,45.0,33.1,63,29.97,10.0,ENE,3.5,-,N/A,,Clear,60,2013-02-12 23:53:00
6:53 PM,45.0,33.1,63,29.97,10.0,NE,5.8,-,N/A,,Overcast,50,2013-02-13 00:53:00
7:53 PM,44.1,34.0,68,29.94,10.0,NE,6.9,-,N/A,,Overcast,50,2013-02-13 01:53:00
8:53 PM,44.1,33.1,65,29.91,10.0,NE,12.7,-,N/A,,Overcast,40,2013-02-13 02:53:00
9:53 PM,44.1,32.0,63,29.91,10.0,ENE,4.6,-,N/A,,Overcast,60,2013-02-13 03:53:00
10:53 PM,42.1,33.1,70,29.89,10.0,NNE,8.1,-,N/A,,Overcast,20,2013-02-13 04:53:00
11:53 PM,42.1,33.1,70,29.90,10.0,NNW,4.6,-,N/A,,Overcast,340,2013-02-13 05:53:00